Location: Alto Coruma
(10.2899°N, 66.8144°W)
Time: 05:46:00
(UTC+00:00)

Daily predictions for brighter satellites

Satellite Brightness Start Highest point End
(mag) Time Altitude Azimuth Time Altitude Azimuth Time Altitude Azimuth
Meteor PRIRODA 4.1 00:00:26 13° S 00:03:17 51° W 00:06:32 10° NNW
ATLAS CENTAUR R/B 1.7 00:06:15 34° ENE 00:06:15 34° ENE 00:08:32 10° NE
Cosmos 1980 Rocket 3.8 00:03:45 10° NNE 00:07:08 16° ENE 00:07:08 16° ENE
YAOGAN 1 4.3 00:03:22 10° SSW 00:07:10 31° W 00:10:58 10° NW
Ariane H10+ 4.1 00:03:11 10° SW 00:10:02 41° SSE 00:17:43 25° ESE
Timation 1 Rocket 4.4 00:04:39 10° S 00:10:21 50° ESE 00:16:04 10° NNE
USA 59 Rocket 3.1 00:11:30 10° WNW 00:16:57 27° WSW 00:23:54 10° S
Cosmos 1633 Rocket 3.6 00:14:25 10° NNE 00:18:02 37° ENE 00:18:02 37° ENE
DELTA 2 DEB (DPAF) 4.1 00:15:11 10° N 00:19:21 72° WNW 00:23:31 10° SSW
deb Centaur AC-2 4.3 00:14:50 10° WNW 00:20:32 82° SSW 00:21:51 50° SE
H-2A R/B 3.9 00:18:49 10° WSW 00:20:33 12° SW 00:22:01 10° SSW
Okean O Rocket 3.0 00:23:09 25° NE 00:23:09 25° NE 00:25:47 10° NNE
OAO 3 Rocket 3.0 00:18:02 10° NW 00:22:40 83° NE 00:23:31 59° ESE
Cosmos 2360 4.3 00:16:59 10° NNW 00:22:41 75° WSW 00:25:51 27° S
SJ-6B 3.4 00:22:36 31° SSW 00:23:55 49° W 00:27:25 10° NNW
KORONAS-FOTON 3.9 00:28:44 62° NNE 00:28:44 62° NNE 00:31:51 10° N
CZ-4B R/B 3.1 00:27:17 50° ESE 00:28:20 61° ENE 00:33:32 10° N
BlueWalker 3 4.4 00:25:13 10° SSW 00:25:32 12° SSW 00:25:32 12° SSW
USA 186 2.9 00:30:52 40° N 00:30:52 40° N 00:33:06 10° N
BREEZE-M DEB (TANK) 4.3 00:22:14 10° SW 00:33:32 81° NW 00:36:08 20° NNE
Cosmos 1842 3.5 00:35:02 62° NW 00:35:02 62° NW 00:38:21 10° N
Meteor 2-12 Rocket 4.4 00:34:38 21° S 00:38:53 88° W 00:45:03 10° N
Lacrosse 5 rocket 1.5 00:35:02 10° NNW 00:38:33 64° NW 00:38:33 64° NW
CZ-4 R/B 2.5 00:40:06 34° SW 00:40:52 38° W 00:44:33 10° NNW
Cosmos 1666 Rocket 3.6 00:36:35 10° N 00:40:55 73° W 00:41:07 71° WSW
In-Cosmos 22 4.4 00:43:02 53° ENE 00:43:02 53° ENE 00:47:51 10° NNE
ATLAS CENTAUR R/B 4.2 00:35:48 10° NW 00:48:05 68° WSW 00:51:59 36° S
Resurs 01 Rocket 2.1 00:53:31 57° NW 00:53:31 57° NW 00:57:07 10° NNW
MOS 1-B Rocket 4.1 01:00:49 67° S 01:01:50 87° WSW 01:07:56 10° NNW
GOES 2 Rocket 4.4 00:57:17 10° WSW 01:04:29 55° NNW 01:06:12 42° NNE
GPS 2-15 Rocket1 4.2 01:02:28 10° W 01:06:10 43° NW 01:06:10 43° NW
NOSS 3-4 (A) 4.3 01:07:03 10° NNW 01:15:02 69° WSW 01:16:45 57° SSW
NOSS 3-4 (C) 4.2 01:07:05 10° NNW 01:15:02 70° WSW 01:16:39 58° SSW
Orbus 21S 4.3 01:16:49 10° NW 01:20:42 50° NNE 01:20:48 50° NE
Cosmos 1980 Rocket 4.0 01:45:52 10° NW 01:48:55 27° WNW 01:48:55 27° WNW
SL-16 R/B 3.4 07:14:14 46° ENE 07:14:14 46° ENE 07:19:36 10° N
Cosmos 2123 Rocket 4.4 07:24:53 10° N 07:29:48 56° NNE 07:29:48 56° NNE
Cosmos 1943 Rocket 4.2 07:35:28 18° SE 07:37:08 21° ESE 07:41:14 10° NE
Ariane V96 H10-3 4.2 07:48:58 57° SE 07:48:58 57° SE 08:01:43 10° E
GPS 2-15 Rocket1 3.8 08:05:59 47° ESE 08:05:59 47° ESE 08:09:24 10° ESE
Cosmos 2278 Rocket 2.0 08:07:31 76° SSW 08:08:01 89° W 08:13:41 10° NNE
H-2A R/B 3.0 08:03:42 10° NNE 08:08:33 42° E 08:10:51 26° SSE
NOSS 3-1 (C) 2.9 08:08:44 63° ESE 08:08:44 63° ESE 08:13:19 10° NNE
Cosmos 1602 Rocket 4.3 08:10:56 45° NNW 08:10:56 45° NNW 08:14:05 10° N
Lacrosse 5 2.3 08:11:32 48° NW 08:11:32 48° NW 08:15:51 10° NNE
IRS-1D 3.6 08:08:16 10° N 08:12:48 60° NW 08:12:48 60° NW
GPS 2-17 Rocket1 3.1 08:16:32 68° SE 08:16:32 68° SE 08:21:04 10° ENE
SWIFT 3.1 08:16:15 42° N 08:16:28 43° NNE 08:20:15 10° E
Cosmos 1271 Rocket 4.5 08:20:49 21° NNW 08:20:49 21° NNW 08:22:09 10° N
Cosmos 2100 Rocket 4.0 08:15:40 31° S 08:18:52 82° E 08:25:04 10° N
CZ-2C R/B 3.5 08:17:21 10° NNW 08:20:01 27° NW 08:20:01 27° NW
Cosmos 1862 4.2 08:24:17 35° NNW 08:24:17 35° NNW 08:26:39 10° N
OAO 2 Rocket 4.3 08:23:37 32° NW 08:24:15 33° NNW 08:28:43 10° NNE
Yuri Rocket 4.5 08:21:41 44° SW 08:24:24 79° SSE 08:34:06 10° ENE
NOSS 3-1 (A) 4.3 08:24:09 18° SSE 08:26:44 29° ESE 08:30:45 10° NE
USA 290 3.0 08:29:35 47° ESE 08:29:40 47° ESE 08:32:46 10° NNE
Centaur AC-72 4.3 07:38:51 10° WNW 08:31:45 82° SSW 08:39:12 10° ESE
ATLAS 3B R/B 3.8 08:26:49 11° S 08:32:28 38° ESE 08:38:46 10° NE
Ariane H10-3 4.2 08:28:47 29° WSW 08:33:19 38° SSW 08:37:53 10° SE
Meteor 2-2 Rocket 4.4 08:31:26 10° N 08:37:02 73° E 08:42:42 10° S
CSL-04 DEB 4.1 08:33:23 10° NNE 08:37:08 87° ESE 08:38:04 50° S
Cosmos 1939 Rocket 3.4 08:35:17 10° NNE 08:39:05 52° E 08:41:30 20° S
Cosmos 2016 Rocket 4.3 08:33:25 10° S 08:39:31 66° E 08:45:42 10° NNE
Cosmos 1607 3.8 08:35:32 10° NNW 08:41:47 88° WSW 08:47:54 10° SSE
Cosmos 1484 Rocket 2.6 08:38:22 10° NNE 08:42:08 87° E 08:43:29 38° S
ISS -3.9 08:42:17 73° WNW 08:42:22 74° NW 08:45:40 10° NNE
GOES 2 Rocket 4.3 08:40:40 10° NW 08:44:54 45° NNE 08:50:02 10° E
Cosmos 1809 Rocket 4.4 08:42:05 10° N 08:48:11 86° W 08:54:20 10° S
Cosmos 2084 4.0 08:49:43 35° W 08:50:42 40° WNW 08:54:41 10° N
DMSP B5D2-2 4.0 08:46:52 10° S 08:52:05 73° WSW 08:57:21 10° NNW
H-2A R/B 3.5 08:51:04 10° NNE 08:54:07 41° E 08:57:12 10° S
Cosmos 2151 2.8 08:51:03 16° S 08:54:18 87° E 08:58:25 10° N
Meteor 2-8 Rocket 4.4 08:48:33 10° S 08:54:36 76° W 09:00:44 10° N
SL-16 R/B 4.3 08:59:19 13° WNW 08:59:19 13° WNW 09:00:29 10° WNW
Cosmos 1515 3.7 08:56:22 10° NNW 08:59:41 45° W 09:01:12 26° SSW
USA 305 2.5 08:59:36 36° WSW 09:00:31 48° WNW 09:03:24 10° NNE
Cosmos 1378 2.6 08:57:32 10° N 09:00:45 71° W 09:03:45 12° S
Cosmos 2346 Rocket 4.4 08:56:17 10° NNW 09:02:14 61° W 09:08:13 10° S
CBERS-1 4.4 09:03:57 10° N 09:08:49 45° WNW 09:13:02 13° SW
Cosmos 1782 3.7 09:06:04 10° NW 09:09:14 25° W 09:10:23 22° WSW
Cosmos 1666 4.3 09:11:54 14° WNW 09:11:54 14° WNW 09:13:28 10° NW
BREEZE-M DEB (TANK) 3.2 09:09:41 10° WNW 09:12:47 49° SW 09:21:59 10° SSE
Cosmos 1833 Rocket 3.8 09:08:30 10° N 09:13:54 48° ENE 09:19:18 10° SSE
Cosmos 44 4.2 09:12:26 18° SW 09:15:53 36° WNW 09:20:47 10° N
Meteor 1-26 Rocket 4.0 09:11:01 10° N 09:16:22 79° W 09:21:48 10° S
Cosmos 1943 Rocket 3.2 09:17:02 15° WSW 09:20:32 28° WNW 09:25:18 10° NNW
Cosmos 1076 Rocket 3.5 09:21:01 10° SSW 09:25:09 55° W 09:29:15 10° N
SL-08 RB Rocket 3.7 09:21:53 10° NNE 09:26:21 90° NNW 09:30:53 10° SSW
ARGOS 3.3 09:24:13 10° N 09:29:32 60° WNW 09:34:51 10° SSW
Hubble Space Telescope 3.2 09:29:27 10° SSE 09:30:42 11° SSE 09:31:59 10° SE
Cosmos 614 Rocket 4.0 09:26:47 10° NNW 09:31:44 55° WSW 09:36:38 10° S
NOAA 12 4.1 09:26:46 10° NNE 09:32:04 88° WNW 09:37:24 10° SSW
BREEZE-M DEB (TANK) 2.6 09:26:41 10° NW 09:33:06 83° SW 09:35:43 10° SE
ARIANE 5 R/B 3.0 09:32:43 10° SW 09:34:28 20° SSE 09:37:29 10° ESE
ARIANE 5 DEB (SYLDA) 4.2 09:28:34 10° W 09:37:05 46° S 09:40:52 10° ESE
Cosmos 1371 Rocket 4.3 09:33:10 10° S 09:38:23 74° ESE 09:43:38 10° NNE
Centaur Rocket 1.3 09:36:40 10° W 09:38:35 73° NNW 09:41:00 10° ENE
